Location: Asheville, NC
(35.6000°N, 82.5500°W)
Time: 07:21:59
(UTC-04:00)

Vanguard 3 - Pass Details

Date: 09 December 2017
Orbit: 508 x 3264 km, 33.3° (Epoch: 18 July)

Event Time Altitude Azimuth Distance (km) Brightness Sun altitude
Rises 21:00:26 0° 263° (W) 3,838 11.4 -44.6°
Reaches altitude 10° 21:03:57 10° 242° (WSW) 3,290 10.7 -45.3°
Maximum altitude 21:09:00 17° 206° (SSW) 3,346 10.4 -46.3°
Enters shadow 21:11:51 15° 188° (S) 3,771 10.5 -46.9°
